Regional Weather Roundup
Issued by NWS Newport/Morehead, NC

Home | Current Version | Previous Version | Text Only | Print | Product List | Glossary On
Versions: 1 2 3 4 5 6 7 8 9 10 11 12 13 14 15 16 17 18 19 20 21 22 23 24 25 26 27 28 29 30 31 32 33 34 35 36 37 38 39 40 41 42 43 44 45 46 47 48 49 50
000
ASUS42 KMHX 280525
RWRMHX
WEATHER ROUNDUP FOR EASTERN NORTH CAROLINA
NATIONAL WEATHER SERVICE NEWPORT/MOREHEAD CITY NC
1200 AM EST TUE FEB 28 2017

NOTE: "FAIR" INDICATES FEW OR NO CLOUDS BELOW 12,000 FEET
WITH NO SIGNIFICANT WEATHER AND/OR OBSTRUCTIONS TO VISIBILITY

NCZ015>017-031-032-045>047-102-103-280600-
NORTH COAST

CITY           SKY/WX    TMP DP  RH WIND       PRES   REMARKS
EDENTON        CLOUDY    58  49  73 CALM      30.37S
ELIZABETH CITY CLOUDY    55  50  83 E3        30.37F
KITTY HAWK     NOT AVBL
MANTEO         PTCLDY    59  54  84 S6        30.37F

$$

NCZ045>047-081-094-103-104-280600-
CENTRAL COAST

CITY           SKY/WX    TMP DP  RH WIND       PRES   REMARKS
FRISCO         PTCLDY    69  54  58 S15G22    30.36F

$$

NCZ095-097-098-100-101-280600-
SOUTHERN COAST

CITY           SKY/WX    TMP DP  RH WIND       PRES   REMARKS
BEAUFORT       MOCLDY    65  57  75 S7        30.32F
CEDAR ISLAND   NOT AVBL
JACKSONVILLE   MOCLDY    57  52  83 N6        30.35R
PINEY ISLAND   MOCLDY   N/A N/A N/A E5        30.33F
WILMINGTON     CLOUDY    64  56  75 S6        30.33R


$$

NCZ011>013-027>030-043-044-078>080-089-090>093-098-280600-
COASTAL PLAIN

CITY           SKY/WX    TMP DP  RH WIND       PRES   REMARKS
AHOSKIE          N/A     53  45  75 CALM      30.37S
CLINTON        MOCLDY    56  51  82 CALM      30.35F
ELIZABETHTOWN  PTCLDY    57  50  78 N3        30.34R
GOLDSBORO      MOCLDY    56  51  82 SE5       30.34R
GREENVILLE     CLOUDY    55  48  76 CALM      30.37R
HAVELOCK       PTCLDY    56  51  84 NW9       30.36S
KENANSVILLE    CLOUDY    54  48  82 CALM      30.36S
KINSTON        NOT AVBL
NEW BERN       PTCLDY    53  50  89 NE3       30.37R
RICHLANDS      CLOUDY    52  48  86 CALM      30.35R
ROCKY MOUNT    CLOUDY    55  48  77 S3        30.35F
WASHINGTON     CLOUDY    55  49  79 CALM      30.37R
WHITEVILLE     CLOUDY    57  51  79 CALM      30.31F

$$

AMZ130-135-150-152-154-156-158-170-250-252-270-ANZ085-086-088-633-658-670-280600-
MARINE OBSERVATIONS

STATION/POSITION TIME  TEMP    WIND        PRES    WAVE   SWELL
                       AIR SEA DIR/SP/G            HT/PER HT/PER
                 (UTC) (F)     (DEG/KT/KT) (MB)    (FT/S) (FT/S)
CHESAPEAKE LIGHT NOT AVBL
64 E VA BEACH    0450   55 50   90/  6/  6 1029.1    3/ 8   3/ 8
DUCK             0500   54 49  150/ 10/ 11 1027.7
2 E DUCK         0500      51                N/A     2/ 8
OREGON INLET     0500   58 57  120/  3/  5 1028.6
13E OREGON INLT  NOT AVBL
HATTERAS CG      0500   68 62  170/ 11/ 15 1027.6
DIAMOND BUOY     0450   69 72  170/ 17/ 21 1028.3    4/ 8   2/ 8
CAPE LOOKOUT     0500   65     150/ 11/ 13 1026.3
BEAUFORT LAB     0500   66 62  170/  8/ 10 1026.0
30 SE NEW RVR IN 0508   67     170/ 16/ 23 1026.5
30 SE NEW RVR IN 0443      65                N/A     4/ 8
27 SE WRIGHTSVLE 0508   67 63  160/ 16/ 21 1025.7
5 SE WRIGHTSVLE  0508   62 58  170/  6/ 10 1026.5
225 S CAPE HAT   0450   69 70  140/ 14/ 16 1029.2    4/ 8   3/ 8
41 SE CHARLESTON 0350   70 69  130/ 17/ 19 1025.1    4/ 6   2/ 8

$$



USA.gov is the U.S. government's official web portal to all federal, state and local government web resources and services.